Find Chuangxin-1 04

NORAD ID: 40137 Int'l Des: 2014-051 Owner: CAST Country: CN operational
LEOCIRCULARRETROGRADESSO

当前视图

正在加载3D地球...

About Chuangxin-1 04

Chuangxin-1 04 (NORAD 40137) is a satellite launched Sep 4, 2014 by CAST of CN. It operates in LEO, CIRCULAR, RETROGRADE, SSO orbit with a mass of 90.00 kg.

即将过境

Passes for default location (London). Set your location on the main map for personalized predictions.

高度历史

Loading altitude history...

两行轨道根数

1 40137U 14051B 26195.23075900 -.00000132 00000-0 -33562-4 0 9996
2 40137 98.7058 197.0961 0023521 94.4074 265.9796 14.30415616618413
Epoch: Jul 14, 2026 • Age: 11 hours

当前状态

高度 806.4 km
远地点 / 近地点 N/A
速度 7.45 km/s
星下点 -25.63°S, 167.7°W
发射日期 Sep 4, 2014
运行时间 11.8 years
类型 other

技术详情

分类 Payload
质量 90.00 kg
干质量 90.00 kg
总质量 90.00 kg
长度 0.50 m
直径 0.50 m
跨度 0.50 m
形状 Box
制造商 SECM
平台类型 CX
阶段状态 In Orbit
所有者/国家 CAST/CN

Most Searched